カタログに戻る

STARLINK-33788

運用中通信VLEO
NORAD 63589·PAYLOAD·🇺🇸 United States

打ち上げ Apr 14, 2025 から Cape Canaveral Space Force Station

Loading…

次のパス (今後24時間)

TLE

最新Source: CelesTrak SupGP

元期: Sep 15, 2026, 03:14 UTC

1 63589C 25076W   26258.13520833  .00044370  00000+0  16070-2 0  2580
2 63589  43.0010 332.0421 0001433 259.9299   1.9117 15.27557535    17

AllMySatでSTARLINK-33788をリアルタイム追跡

Download on the App Store